Location: Proctor
(47.8934°N, 114.3048°W)
Time: 23:30:25
(UTC+00:00)

Tiros 1 - All Passes

Search period start: 15 June 2024 00:00
Search period end: 25 June 2024 00:00
Orbit: 624 x 657 km, 48.4° (Epoch: 15 June)

Date Brightness Start Highest point End Pass type
(mag) Time Alt. Az. Time Alt. Az. Time Alt. Az.
15 Jun - 09:12:11 10° S 09:14:51 15° SE 09:17:32 10° E visible
15 Jun - 10:51:40 10° SW 10:56:09 52° SSE 11:00:42 10° E visible
15 Jun - 12:33:26 10° W 12:38:06 86° N 12:42:50 10° E daylight
15 Jun - 14:15:33 10° W 14:20:14 81° SSW 14:24:59 10° ESE daylight
15 Jun - 15:57:47 10° W 16:01:59 32° SSW 16:06:11 10° SSE daylight
16 Jun - 09:34:25 10° SSW 09:38:20 28° SE 09:42:18 10° E visible
16 Jun - 11:15:21 10° WSW 11:19:58 76° SSE 11:24:40 10° E daylight
16 Jun - 12:57:24 10° W 13:02:05 84° N 13:06:49 10° E daylight
16 Jun - 14:39:30 10° W 14:44:06 57° SSW 14:48:44 10° SE daylight
16 Jun - 16:22:19 10° W 16:25:31 18° SW 16:28:44 10° S daylight
17 Jun - 08:18:35 10° SSE 08:20:46 13° SE 08:22:58 10° ESE visible
17 Jun - 09:57:34 10° SW 10:01:59 47° SSE 10:06:28 10° E visible
17 Jun - 11:39:15 10° W 11:43:54 87° N 11:48:37 10° E daylight
17 Jun - 13:21:22 10° W 13:26:03 84° S 13:30:46 10° ESE daylight
17 Jun - 15:03:33 10° W 15:07:49 36° SSW 15:12:08 10° SE daylight
18 Jun - 08:40:28 10° SSW 08:44:13 25° SE 08:47:59 10° E visible
18 Jun - 10:21:11 10° WSW 10:25:47 71° SSE 10:30:26 10° ENE visible
18 Jun - 12:03:13 10° W 12:07:53 83° N 12:12:36 10° E daylight
18 Jun - 13:45:18 10° WNW 13:49:55 62° SSW 13:54:34 10° ESE daylight
18 Jun - 15:27:56 10° W 15:31:23 20° SW 15:34:52 10° S daylight
19 Jun - 07:25:12 10° SSE 07:26:41 11° SE 07:28:10 10° ESE visible
19 Jun - 09:03:29 10° SW 09:07:50 42° SSE 09:12:13 10° E visible
19 Jun - 10:45:03 10° W 10:49:42 90° NNE 10:54:23 10° E visible
19 Jun - 12:27:10 10° W 12:31:50 88° S 12:36:33 10° ESE daylight
19 Jun - 14:09:19 10° W 14:13:40 39° SSW 14:18:03 10° SE daylight
19 Jun - 15:54:10 10° SW 15:54:48 10° SW 15:55:26 10° SW daylight
20 Jun - 07:46:33 10° SSW 07:50:05 22° SE 07:53:39 10° E visible
20 Jun - 09:27:02 10° WSW 09:31:36 66° SSE 09:36:13 10° ENE visible
20 Jun - 11:09:01 10° W 11:13:39 83° N 11:18:21 10° E daylight
20 Jun - 12:51:06 10° WNW 12:55:43 67° SSW 13:00:23 10° ESE daylight
20 Jun - 14:33:36 10° W 14:37:16 23° SW 14:40:57 10° SSE daylight
21 Jun - 08:09:24 10° SW 08:13:40 38° SSE 08:17:58 10° E visible
21 Jun - 09:50:51 10° WSW 09:55:29 87° S 10:00:10 10° E visible
21 Jun - 11:32:58 10° W 11:37:37 90° NE 11:42:19 10° E daylight
21 Jun - 13:15:05 10° W 13:19:30 43° SSW 13:23:57 10° SE daylight
21 Jun - 14:58:56 10° WSW 15:00:41 12° SW 15:02:27 10° SSW daylight
22 Jun - 06:52:40 10° S 06:55:57 20° SE 06:59:17 10° E visible
22 Jun - 08:32:52 10° WSW 08:37:24 61° SSE 08:41:59 10° ENE visible
22 Jun - 10:14:48 10° W 10:19:26 83° N 10:24:06 10° E visible
22 Jun - 11:56:53 10° WNW 12:01:31 71° SSW 12:06:11 10° ESE daylight
22 Jun - 13:39:17 10° W 13:43:07 26° SW 13:46:58 10° SSE daylight
23 Jun - 07:15:21 10° SSW 07:19:30 35° SSE 07:23:41 10° E visible
23 Jun - 08:56:39 10° WSW 09:01:16 84° SSE 09:05:54 10° E visible
23 Jun - 10:38:45 10° W 10:43:23 87° N 10:48:04 10° E visible
23 Jun - 12:20:51 10° W 12:25:19 47° SSW 12:29:48 10° SE daylight
23 Jun - 14:04:15 10° WSW 14:06:34 14° SW 14:08:55 10° SSW daylight
24 Jun - 05:58:50 10° S 06:01:50 17° SE 06:04:51 10° E visible
24 Jun - 07:38:43 10° SW 07:43:12 56° SSE 07:47:44 10° E visible
24 Jun - 09:20:34 10° W 09:25:12 84° N 09:29:52 10° E visible
24 Jun - 11:02:40 10° W 11:07:18 76° SSW 11:11:58 10° ESE daylight
24 Jun - 12:44:58 10° W 12:48:57 28° SW 12:52:57 10° SSE daylight
